Location: Fort Wayne
(41.1310°N, 85.1290°W)
Time: 04:41:05
(UTC-04:00)

Iridium 37 - Visible Passes

Search period start: 25 April 2017 00:00
Search period end: 05 May 2017 00:00
Orbit: 776 x 779 km, 86.4° (Epoch: 23 April)

Date Brightness Start Highest point End Pass type
(mag) Time Alt. Az. Time Alt. Az. Time Alt. Az.
25 Apr 5.9 22:03:25 10° N 22:08:35 65° W 22:13:44 10° S visible
26 Apr 5.5 21:29:51 10° N 21:35:04 69° E 21:40:15 10° S visible
26 Apr 8.2 23:12:37 10° NW 23:15:07 14° WNW 23:17:36 10° WSW visible
27 Apr 6.1 20:56:36 10° NNE 21:01:26 37° E 21:06:14 10° SSE visible
27 Apr 7.6 22:37:45 10° NNW 22:41:55 25° W 22:46:05 10° SW visible
28 Apr 6.6 22:03:39 10° NNW 22:08:36 45° W 22:13:32 10° SSW visible
29 Apr 5.6 21:29:55 10° N 21:35:10 83° W 21:40:23 10° S visible
30 Apr 8.2 22:38:28 10° NW 22:41:49 17° W 22:45:09 10° WSW visible
01 May 7.4 22:04:02 10° NNW 22:08:34 31° W 22:13:06 10° SW visible
02 May 6.2 21:30:05 10° N 21:35:12 57° W 21:40:18 10° SSW visible
03 May 8.5 22:39:49 10° NW 22:41:40 12° WNW 22:43:31 10° W visible
04 May 8.0 22:04:34 10° NNW 22:08:30 22° W 22:12:25 10° SW visible
